Sign in Sign up

Hamar

Pos Pair Lane Name Born Nation Time
1 11 I Martina Sábliková 1987 Czech Republic 4:02.21
2 12 O Ireen Wüst 1986 Netherlands 4:03.71
3 10 O Antoinette de Jong 1995 Netherlands 4:03.77
4 7 O Natalya Voronina 1994 Russia 4:05.77
5 12 I Anna Yurakova 1992 Russia 4:06.26
6 10 I Miho Takagi 1994 Japan 4:06.52
7 9 O Olga Graf 1983 Russia 4:06.96
8 9 I Marije Joling 1987 Netherlands 4:07.91
9 11 O Ivanie Blondin 1990 Canada 4:08.29
10 6 O Bente Kraus 1989 Germany 4:08.36
11 8 I Ayano Sato 1996 Japan 4:09.82
12 5 I Marina Zueva 1992 Belarus 4:09.93
13 3 I Ida Njĺtun 1991 Norway 4:09.99
14 6 I Natalia Czerwonka 1988 Poland 4:10.32
15 2 O Katarzyna Woźniak 1989 Poland 4:11.59
16 1 O Nana Takagi 1992 Japan 4:12.18
17 5 O Francesca Lollobrigida 1991 Italy 4:12.20
18 3 O Luiza Zlotkowska 1986 Poland 4:12.88
19 4 I Jelena Peeters 1985 Belgium 4:12.89
20 4 O Nikola Zdráhalová 1996 Czech Republic 4:13.27
21 8 O Carlijn Schoutens 1994 USA 4:14.81
22 2 I Saskia Alusalu 1994 Estonia 4:17.75
23 1 I Sofie Karoline Haugen 1995 Norway 4:18.71
24 7 I Camilla Lund 1994 Norway 4:26.56

Info

What World Champ All-round
Discipline 3.000
Host Hamar
Nation Norway
Date Saturday 4.Mar 2017
Calendar 2016/2017
Air Temp 16.6 C
Ice Temp -10.5 C
Humidity 23.9 %